Location: Unspecified
(38.9820°N, 94.4650°W)
Time: 18:31:21
(UTC-06:00)

Hubble Space Telescope - Visible Passes

Search period start: 27 February 2015 00:00
Search period end: 09 March 2015 01:00
Orbit: 543 x 548 km, 28.5° (Epoch: 26 February)

Date Brightness Start Highest point End Pass type
(mag) Time Alt. Az. Time Alt. Az. Time Alt. Az.
27 Feb 3.1 04:50:52 15° SSE 04:50:52 15° SSE 04:53:05 10° SE visible
28 Feb 3.1 04:43:10 16° SSE 04:43:10 16° SSE 04:45:02 10° SE visible
28 Feb 2.8 06:20:07 10° SW 06:23:02 18° S 06:25:57 10° SE visible
01 Mar 3.2 04:35:26 15° SSE 04:35:26 15° SSE 04:36:54 10° SE visible
01 Mar 2.8 06:11:57 10° SW 06:14:45 17° S 06:17:32 10° SE visible
02 Mar 3.3 04:27:43 14° SE 04:27:43 14° SE 04:28:42 10° SE visible
02 Mar 2.9 06:03:51 10° SW 06:06:28 16° S 06:09:02 10° SSE visible
03 Mar 3.5 04:19:59 12° SE 04:19:59 12° SE 04:20:26 10° SE visible
03 Mar 3.0 05:55:51 10° SW 05:58:09 14° SSW 06:00:25 10° SSE visible
04 Mar 3.0 05:48:00 10° SW 05:49:51 12° SSW 05:51:37 10° S visible
05 Mar 3.1 05:40:38 10° SSW 05:41:31 10° SSW 05:42:19 10° S visible
